TimeEDT,TemperatureF,Dew PointF,Humidity,Sea Level PressureIn,VisibilityMPH,Wind Direction,Wind SpeedMPH,Gust SpeedMPH,PrecipitationIn,Events,Conditions,WindDirDegrees,DateUTC
12:51 AM,53.6,42.8,67,29.73,10.0,SSW,8.1,-,N/A,,Partly Cloudy,200,2011-10-21 04:51:00
1:51 AM,53.1,42.1,66,29.74,10.0,SW,10.4,-,N/A,,Partly Cloudy,230,2011-10-21 05:51:00
2:51 AM,54.0,37.9,55,29.76,10.0,SW,11.5,-,N/A,,Clear,230,2011-10-21 06:51:00
3:51 AM,53.1,37.0,55,29.77,10.0,WSW,11.5,-,N/A,,Clear,240,2011-10-21 07:51:00
4:51 AM,50.0,37.9,63,29.79,10.0,SSW,8.1,-,N/A,,Clear,210,2011-10-21 08:51:00
5:51 AM,52.0,37.0,57,29.82,10.0,SW,15.0,-,N/A,,Mostly Cloudy,230,2011-10-21 09:51:00
6:51 AM,51.1,37.9,61,29.84,10.0,SW,18.4,21.9,N/A,,Scattered Clouds,230,2011-10-21 10:51:00
7:51 AM,51.8,37.4,58,29.87,10.0,SW,16.1,-,N/A,,Scattered Clouds,230,2011-10-21 11:51:00
8:51 AM,53.1,39.0,59,29.90,10.0,SW,12.7,23.0,N/A,,Scattered Clouds,230,2011-10-21 12:51:00
9:51 AM,55.9,39.0,53,29.91,10.0,West,15.0,23.0,N/A,,Scattered Clouds,270,2011-10-21 13:51:00
10:51 AM,55.9,37.9,51,29.92,10.0,West,17.3,26.5,N/A,,Mostly Cloudy,280,2011-10-21 14:51:00
11:51 AM,57.0,37.9,49,29.93,10.0,WSW,15.0,-,N/A,,Mostly Cloudy,240,2011-10-21 15:51:00
12:51 PM,60.1,39.0,46,29.92,10.0,West,17.3,24.2,N/A,,Mostly Cloudy,260,2011-10-21 16:51:00
1:51 PM,57.9,37.9,47,29.92,10.0,West,16.1,-,N/A,,Mostly Cloudy,270,2011-10-21 17:51:00
2:51 PM,57.9,39.0,49,29.92,10.0,WSW,15.0,-,N/A,,Mostly Cloudy,240,2011-10-21 18:51:00
3:51 PM,57.9,39.0,49,29.94,10.0,West,13.8,23.0,N/A,,Mostly Cloudy,260,2011-10-21 19:51:00
4:51 PM,57.0,39.0,51,29.96,10.0,West,10.4,25.3,N/A,,Mostly Cloudy,260,2011-10-21 20:51:00
5:51 PM,57.0,39.0,51,29.97,10.0,West,11.5,-,N/A,,Mostly Cloudy,260,2011-10-21 21:51:00
6:51 PM,55.9,39.0,53,29.99,10.0,West,8.1,-,N/A,,Mostly Cloudy,260,2011-10-21 22:51:00
7:51 PM,55.9,39.0,53,30.00,10.0,WSW,9.2,-,N/A,,Mostly Cloudy,250,2011-10-21 23:51:00
8:51 PM,55.9,39.9,55,30.01,10.0,WSW,11.5,-,N/A,,Mostly Cloudy,250,2011-10-22 00:51:00
9:51 PM,55.0,39.9,57,30.02,10.0,WSW,8.1,-,N/A,,Mostly Cloudy,250,2011-10-22 01:51:00
10:51 PM,53.1,41.0,64,30.02,10.0,WSW,6.9,-,N/A,,Partly Cloudy,250,2011-10-22 02:51:00
11:51 PM,51.1,41.0,68,30.03,10.0,WSW,9.2,-,N/A,,Mostly Cloudy,240,2011-10-22 03:51:00